DW6574 Weather Reports


Display with metric or nautical units.
time (UTC)temp
F
wind
direction
speed
MPH
gust
MPH
rain 1hr
in
rain 24hr
in
rain mn
in
humidity
%
barometer
mb
20260507140058 57 328 2.0 8.0 0.00 0.28 0.17 65 1007.3
20260507134551 56 85 3.0 9.0 0.00 0.28 0.17 68 1007.3
20260507133048 55 207 1.0 6.0 0.00 0.28 0.17 74 1007.5
20260507131545 55 46 1.0 6.0 0.00 0.28 0.17 77 1007.5
20260507130044 54 38 0.0 2.0 0.00 0.28 0.17 83 1007.6
20260507124543 52 306 0.0 3.0 0.00 0.28 0.17 87 1007.7
20260507123046 51 289 0.0 4.0 0.00 0.28 0.17 90 1007.8
20260507121543 49 84 0.0 1.0 0.00 0.28 0.17 92 1007.9
20260507120041 49 198 0.0 0.0 0.00 0.28 0.17 92 1007.8
20260507114545 48 200 0.0 0.0 0.00 0.28 0.17 92 1007.5
20260507113039 48 146 0.0 0.0 0.00 0.28 0.17 92 1007.6
20260507111545 48 146 0.0 0.0 0.00 0.28 0.17 92 1007.3
20260507110037 48 146 0.0 0.0 0.00 0.28 0.17 92 1007.4
20260507104536 48 146 0.0 0.0 0.01 0.28 0.17 92 1007.0
20260507103036 48 205 0.0 0.0 0.03 0.28 0.17 91 1007.5
20260507101533 48 203 0.0 1.0 0.06 0.28 0.17 91 1007.4
20260507100034 48 213 0.0 1.0 0.07 0.28 0.17 91 1007.0
20260507094534 47 253 0.0 0.0 0.09 0.27 0.16 90 1006.8
20260507093040 48 255 0.0 0.0 0.10 0.25 0.14 90 1006.8
20260507091533 48 60 0.0 0.0 0.07 0.22 0.11 90 1006.7
20260507090028 48 150 0.0 0.0 0.08 0.21 0.10 89 1006.7
20260507084525 48 73 0.0 1.0 0.06 0.18 0.07 88 1007.0
20260507083027 49 323 0.0 1.0 0.04 0.15 0.04 88 1007.0
20260507081530 50 20 0.0 0.0 0.04 0.15 0.04 87 1006.6
20260507080021 50 22 0.0 0.0 0.02 0.13 0.02 85 1006.9
20260507074515 51 330 1.0 4.0 0.01 0.12 0.01 83 1006.7
20260507073011 52 349 0.0 3.0 0.00 0.11 0.00 82 1006.4
20260507071509 53 306 0.0 1.0 0.00 0.11 0.00 81 1005.8
20260507070011 53 300 0.0 1.0 0.00 0.11 0.00 82 1005.7
20260507064506 54 327 0.0 3.0 0.00 0.11 0.00 83 1005.7
20260507063003 54 309 0.0 3.0 0.00 0.11 0.00 85 1006.0
20260507061503 55 173 0.0 0.0 0.00 0.11 0.00 86 1005.8
20260507060100 55 173 0.0 1.0 0.00 0.11 0.00 86 1005.7
20260507054609 55 82 0.0 2.0 0.00 0.11 0.00 86 1005.9
20260507053056 56 60 0.0 2.0 0.00 0.11 0.00 88 1006.1
20260507051554 57 39 0.0 1.0 0.00 0.11 0.00 89 1006.1
20260507050049 57 219 0.0 1.0 0.00 0.11 0.00 90 1005.8
20260507044548 57 219 0.0 1.0 0.00 0.11 0.00 90 1005.9
20260507043045 58 207 0.0 1.0 0.00 0.11 0.00 90 1005.8
20260507041552 58 307 0.0 2.0 0.00 0.11 0.00 91 1005.7
20260507040041 59 317 0.0 1.0 0.00 0.11 0.00 91 1005.8
20260507034540 59 260 0.0 2.0 0.00 0.11 0.11 91 1006.0
20260507033044 59 226 0.0 5.0 0.00 0.11 0.11 91 1005.8
20260507031539 58 245 1.0 5.0 0.00 0.11 0.11 91 1005.6
20260507030041 58 203 2.0 6.0 0.00 0.11 0.11 91 1005.3
20260507024539 58 241 1.0 5.0 0.00 0.11 0.11 91 1005.4
20260507023038 58 212 0.0 5.0 0.00 0.11 0.11 91 1005.4
20260507021537 58 228 1.0 5.0 0.00 0.11 0.11 91 1005.2
20260507020037 58 224 2.0 6.0 0.00 0.11 0.11 91 1005.4
20260507014549 58 217 0.0 5.0 0.00 0.11 0.11 91 1005.4
20260507013043 58 186 0.0 8.0 0.00 0.11 0.11 91 1005.4
20260507011539 58 233 0.0 8.0 0.00 0.11 0.11 91 1005.7
20260507010034 58 216 0.0 7.0 0.00 0.11 0.11 91 1005.8
20260507004533 57 211 3.0 7.0 0.00 0.11 0.11 91 1005.8
20260507003034 57 216 1.0 5.0 0.02 0.11 0.11 91 1005.8
20260507001531 57 216 1.0 6.0 0.02 0.11 0.11 91 1005.7
20260507000032 57 241 3.0 8.0 0.03 0.11 0.11 91 1005.5
20260506234529 58 218 1.0 10.0 0.03 0.11 0.11 90 1005.3
20260506233028 58 251 3.0 12.0 0.01 0.09 0.09 90 1005.3
20260506231525 58 131 0.0 6.0 0.01 0.09 0.09 90 1005.3
20260506230024 58 252 2.0 8.0 0.00 0.08 0.08 90 1005.4
20260506224523 58 323 2.0 10.0 0.00 0.08 0.08 90 1005.4
20260506223021 59 291 3.0 13.0 0.01 0.08 0.08 90 1005.5
20260506221518 59 200 4.0 13.0 0.03 0.08 0.08 90 1005.7
20260506220017 59 172 3.0 9.0 0.04 0.08 0.08 90 1005.8
20260506214515 59 209 2.0 9.0 0.03 0.07 0.07 89 1005.8
20260506213014 59 233 1.0 10.0 0.03 0.07 0.07 88 1006.0
20260506211509 60 208 4.0 10.0 0.02 0.05 0.05 88 1006.1
20260506210008 60 205 2.0 11.0 0.01 0.04 0.04 87 1006.2
20260506204506 60 205 2.0 9.0 0.01 0.04 0.04 86 1006.3
20260506203003 60 201 3.0 9.0 0.02 0.04 0.04 85 1006.4
20260506201500 61 225 4.0 12.0 0.02 0.03 0.03 84 1006.4
20260506200148 61 214 6.0 15.0 0.03 0.03 0.03 83 1006.3
20260506194612 62 247 2.0 10.0 0.03 0.03 0.03 83 1006.1
20260506193055 62 210 7.0 16.0 0.02 0.02 0.02 80 1006.4
20260506191554 63 198 6.0 13.0 0.01 0.01 0.01 78 1006.5
20260506190056 65 204 2.0 11.0 0.00 0.00 0.00 74 1006.5
20260506184555 67 226 2.0 14.0 0.00 0.00 0.00 69 1006.4
20260506183053 68 214 2.0 17.0 0.00 0.00 0.00 67 1006.6
20260506181551 70 315 2.0 9.0 0.00 0.00 0.00 62 1006.6
20260506180053 70 238 3.0 20.0 0.00 0.00 0.00 60 1006.7
20260506174548 71 238 1.0 8.0 0.00 0.00 0.00 58 1006.8
20260506173057 72 200 6.0 22.0 0.00 0.00 0.00 56 1006.8
20260506171552 72 218 7.0 22.0 0.00 0.00 0.00 56 1006.9
20260506170045 74 238 7.0 14.0 0.00 0.00 0.00 56 1006.7
20260506164541 71 253 7.0 20.0 0.00 0.00 0.00 58 1007.1
20260506163046 72 244 3.0 16.0 0.00 0.00 0.00 57 1007.3
20260506161549 72 257 4.0 17.0 0.00 0.00 0.00 58 1007.5
20260506160036 72 206 4.0 11.0 0.00 0.00 0.00 59 1007.8
20260506154534 71 181 4.0 10.0 0.00 0.00 0.00 60 1008.1
20260506153032 72 258 3.0 10.0 0.00 0.00 0.00 59 1008.2
20260506151532 72 200 4.0 12.0 0.00 0.00 0.00 59 1008.4
20260506150034 72 240 6.0 16.0 0.00 0.00 0.00 58 1008.5
20260506144528 71 180 4.0 14.0 0.00 0.00 0.00 61 1008.5
20260506143025 70 158 7.0 13.0 0.00 0.00 0.00 62 1008.4
20260506141523 70 184 5.0 13.0 0.00 0.00 0.00 64 1008.3